Time,TemperatureF,DewpointF,PressureIn,WindDirection,WindDirectionDegrees,WindSpeedMPH,WindSpeedGustMPH,Humidity,HourlyPrecipIn,Conditions,Clouds,dailyrainin,SoftwareType,DateUTC
2013-08-11 00:00:00,73.5,65.5,30.01,SSW,202,5.0,6.0,76,0.00,OVC,OVC,0.00,WeatherDisplay:10.31,2013-08-11 04:00:00,
2013-08-11 00:05:00,73.5,65.5,30.01,SSW,202,6.0,7.0,76,0.00,OVC,OVC,0.00,WeatherDisplay:10.31,2013-08-11 04:05:00,
2013-08-11 00:10:00,73.5,65.5,30.01,SSW,202,5.0,6.0,76,0.00,OVC,OVC,0.00,WeatherDisplay:10.31,2013-08-11 04:10:00,
2013-08-11 00:15:00,73.5,65.5,30.01,SSW,202,5.0,6.0,76,0.00,OVC,OVC,0.00,WeatherDisplay:10.31,2013-08-11 04:15:00,
2013-08-11 00:20:00,73.5,65.5,30.01,SSW,202,5.0,6.0,76,0.00,OVC,OVC,0.00,WeatherDisplay:10.31,2013-08-11 04:20:00,
2013-08-11 00:30:00,73.5,65.5,30.01,SSW,202,3.0,5.0,76,0.00,OVC,OVC,0.00,WeatherDisplay:10.31,2013-08-11 04:30:00,
2013-08-11 00:40:00,73.7,66.0,30.01,SSW,202,5.0,6.0,77,0.00,OVC,OVC,0.00,WeatherDisplay:10.31,2013-08-11 04:40:00,
2013-08-11 00:50:00,73.7,66.4,30.01,SSW,202,5.0,5.0,78,0.00,OVC,OVC,0.00,WeatherDisplay:10.31,2013-08-11 04:50:00,
2013-08-11 01:00:00,73.5,66.2,30.01,SSW,202,3.0,3.0,78,0.00,OVC,OVC,0.00,WeatherDisplay:10.31,2013-08-11 05:00:00,
2013-08-11 01:05:00,73.5,66.2,30.00,SSW,202,3.0,5.0,78,0.00,OVC,OVC,0.00,WeatherDisplay:10.31,2013-08-11 05:05:00,
2013-08-11 01:25:00,73.3,66.4,30.00,SSW,202,3.0,5.0,79,0.00,OVC,OVC,0.00,WeatherDisplay:10.31,2013-08-11 05:25:00,
2013-08-11 01:30:00,73.3,66.4,30.00,SSW,202,2.0,3.0,79,0.00,OVC,OVC,0.00,WeatherDisplay:10.31,2013-08-11 05:30:00,
2013-08-11 01:40:00,73.3,66.4,30.00,SSW,210,3.0,5.0,79,0.00,OVC,OVC,0.00,WeatherDisplay:10.31,2013-08-11 05:40:00,
2013-08-11 01:50:00,73.2,66.3,29.99,SW,225,3.0,5.0,79,0.00,OVC,OVC,0.00,WeatherDisplay:10.31,2013-08-11 05:50:00,
2013-08-11 02:00:00,73.0,66.5,30.00,SW,225,3.0,5.0,80,0.00,OVC,OVC,0.00,WeatherDisplay:10.31,2013-08-11 06:00:00,
2013-08-11 02:05:00,73.0,66.5,30.00,SW,225,5.0,5.0,80,0.00,OVC,OVC,0.00,WeatherDisplay:10.31,2013-08-11 06:05:00,
2013-08-11 02:15:00,72.8,66.3,30.00,SW,225,5.0,7.0,80,0.00,OVC,OVC,0.00,WeatherDisplay:10.31,2013-08-11 06:15:00,
2013-08-11 02:20:00,72.8,66.3,30.00,SW,217,2.0,6.0,80,0.00,OVC,OVC,0.00,WeatherDisplay:10.31,2013-08-11 06:20:00,
2013-08-11 02:30:00,72.8,66.3,29.99,SSW,202,1.0,2.0,80,0.00,OVC,OVC,0.00,WeatherDisplay:10.31,2013-08-11 06:30:00,
2013-08-11 02:45:00,72.8,66.3,29.99,SSW,202,1.0,2.0,80,0.00,OVC,OVC,0.00,WeatherDisplay:10.31,2013-08-11 06:45:00,
2013-08-11 02:50:00,72.8,66.3,29.99,SSW,202,0.0,1.0,80,0.00,OVC,OVC,0.00,WeatherDisplay:10.31,2013-08-11 06:50:00,
2013-08-11 03:00:00,72.8,66.3,29.99,SSW,202,1.0,2.0,80,0.00,OVC,OVC,0.00,WeatherDisplay:10.31,2013-08-11 07:00:00,
2013-08-11 03:05:00,72.8,66.3,29.99,SSW,202,1.0,2.0,80,0.00,OVC,OVC,0.00,WeatherDisplay:10.31,2013-08-11 07:05:00,
2013-08-11 03:10:00,72.8,66.6,29.99,SSW,202,1.0,2.0,81,0.00,OVC,OVC,0.00,WeatherDisplay:10.31,2013-08-11 07:10:00,
2013-08-11 03:20:00,72.7,66.5,29.99,SSW,202,0.0,2.0,81,0.00,OVC,OVC,0.00,WeatherDisplay:10.31,2013-08-11 07:20:00,
2013-08-11 03:30:00,72.6,66.5,29.99,SSW,202,0.0,2.0,81,0.00,OVC,OVC,0.00,WeatherDisplay:10.31,2013-08-11 07:30:00,
2013-08-11 03:50:00,72.5,66.7,29.99,SSW,202,2.0,3.0,82,0.00,OVC,OVC,0.00,WeatherDisplay:10.31,2013-08-11 07:50:00,
2013-08-11 04:00:00,72.3,66.5,30.00,SSW,202,2.0,5.0,82,0.00,OVC,OVC,0.00,WeatherDisplay:10.31,2013-08-11 08:00:00,
2013-08-11 04:15:00,72.1,66.6,30.00,SSW,202,2.0,3.0,83,0.00,OVC,OVC,0.00,WeatherDisplay:10.31,2013-08-11 08:15:00,
2013-08-11 04:25:00,72.1,66.6,30.00,SSW,202,2.0,3.0,83,0.00,OVC,OVC,0.00,WeatherDisplay:10.31,2013-08-11 08:25:00,
2013-08-11 04:30:00,72.1,67.0,30.00,SSW,202,2.0,3.0,84,0.00,OVC,OVC,0.00,WeatherDisplay:10.31,2013-08-11 08:30:00,
2013-08-11 04:40:00,72.1,67.0,30.00,SSW,202,2.0,3.0,84,0.00,OVC,OVC,0.00,WeatherDisplay:10.31,2013-08-11 08:40:00,
2013-08-11 04:50:00,72.0,66.9,30.00,SSW,202,3.0,5.0,84,0.00,OVC,OVC,0.00,WeatherDisplay:10.31,2013-08-11 08:50:00,
2013-08-11 05:00:00,72.1,67.3,30.00,SSW,202,2.0,3.0,85,0.00,OVC,OVC,0.00,WeatherDisplay:10.31,2013-08-11 09:00:00,
2013-08-11 05:10:00,72.1,67.3,30.01,SSW,202,0.0,3.0,85,0.00,OVC,OVC,0.00,WeatherDisplay:10.31,2013-08-11 09:10:00,
2013-08-11 05:20:00,72.1,67.3,30.01,SSW,202,0.0,1.0,85,0.00,OVC,OVC,0.00,WeatherDisplay:10.31,2013-08-11 09:20:00,
2013-08-11 05:30:00,72.1,67.3,30.01,SSW,202,1.0,2.0,85,0.00,OVC,OVC,0.00,WeatherDisplay:10.31,2013-08-11 09:30:00,
2013-08-11 05:40:00,72.1,67.0,30.01,SSW,202,0.0,1.0,84,0.00,OVC,OVC,0.00,WeatherDisplay:10.31,2013-08-11 09:40:00,
2013-08-11 05:55:00,72.3,67.2,30.01,SSW,202,0.0,0.0,84,0.00,OVC,OVC,0.00,WeatherDisplay:10.31,2013-08-11 09:55:00,
2013-08-11 06:05:00,72.3,67.2,30.02,SSW,202,0.0,1.0,84,0.00,OVC,OVC,0.00,WeatherDisplay:10.31,2013-08-11 10:05:00,
2013-08-11 06:10:00,72.3,67.2,30.02,SSW,202,0.0,0.0,84,0.00,OVC,OVC,0.00,WeatherDisplay:10.31,2013-08-11 10:10:00,
2013-08-11 06:20:00,72.5,67.4,30.02,SSW,202,0.0,2.0,84,0.00,OVC,OVC,0.00,WeatherDisplay:10.31,2013-08-11 10:20:00,
2013-08-11 06:30:00,72.5,67.4,30.03,SSW,202,1.0,2.0,84,0.00,OVC,OVC,0.00,WeatherDisplay:10.31,2013-08-11 10:30:00,
2013-08-11 06:40:00,72.5,67.4,30.03,SSW,202,0.0,1.0,84,0.00,OVC,OVC,0.00,WeatherDisplay:10.31,2013-08-11 10:40:00,
2013-08-11 06:50:00,72.5,67.4,30.03,SSW,202,0.0,0.0,84,0.00,OVC,OVC,0.00,WeatherDisplay:10.31,2013-08-11 10:50:00,
2013-08-11 07:05:00,72.7,67.6,30.03,SSW,202,0.0,1.0,84,0.00,OVC,OVC,0.00,WeatherDisplay:10.31,2013-08-11 11:05:00,
2013-08-11 07:15:00,72.8,67.3,30.03,SSW,202,1.0,3.0,83,0.00,OVC,OVC,0.00,WeatherDisplay:10.31,2013-08-11 11:15:00,
2013-08-11 07:20:00,72.9,67.4,30.04,SSW,202,0.0,1.0,83,0.00,OVC,OVC,0.00,WeatherDisplay:10.31,2013-08-11 11:20:00,
2013-08-11 07:30:00,73.0,67.5,30.03,SSW,202,0.0,0.0,83,0.00,OVC,OVC,0.00,WeatherDisplay:10.31,2013-08-11 11:30:00,
2013-08-11 07:40:00,73.2,67.7,30.04,SSW,202,1.0,3.0,83,0.00,OVC,OVC,0.00,WeatherDisplay:10.31,2013-08-11 11:40:00,
2013-08-11 07:50:00,73.2,67.7,30.04,SSW,202,1.0,3.0,83,0.00,OVC,OVC,0.00,WeatherDisplay:10.31,2013-08-11 11:50:00,
2013-08-11 07:55:00,73.2,68.1,30.04,SSW,202,2.0,3.0,84,0.00,OVC,OVC,0.00,WeatherDisplay:10.31,2013-08-11 11:55:00,
2013-08-11 08:05:00,73.2,68.1,30.04,SSW,202,3.0,5.0,84,0.00,OVC,OVC,0.00,WeatherDisplay:10.31,2013-08-11 12:05:00,
2013-08-11 08:10:00,73.2,68.1,30.04,SSW,202,3.0,6.0,84,0.00,OVC,OVC,0.00,WeatherDisplay:10.31,2013-08-11 12:10:00,
2013-08-11 08:20:00,73.2,68.1,30.04,SSW,202,2.0,3.0,84,0.00,OVC,OVC,0.00,WeatherDisplay:10.31,2013-08-11 12:20:00,
2013-08-11 08:40:00,73.7,68.2,30.05,South,190,3.0,6.0,83,0.00,OVC,OVC,0.00,WeatherDisplay:10.31,2013-08-11 12:40:00,
2013-08-11 08:50:00,74.0,68.5,30.05,SSW,195,3.0,6.0,83,0.00,BKN,BKN,0.00,WeatherDisplay:10.31,2013-08-11 12:50:00,
2013-08-11 09:00:00,74.6,68.4,30.05,SSW,202,5.0,5.0,81,0.00,BKN,BKN,0.00,WeatherDisplay:10.31,2013-08-11 13:00:00,
2013-08-11 09:05:00,74.7,68.5,30.05,SSW,202,5.0,6.0,81,0.00,BKN,BKN,0.00,WeatherDisplay:10.31,2013-08-11 13:05:00,
2013-08-11 09:10:00,75.1,68.5,30.05,SSW,202,3.0,5.0,80,0.00,BKN,BKN,0.00,WeatherDisplay:10.31,2013-08-11 13:10:00,
2013-08-11 09:20:00,75.4,68.8,30.05,SSW,207,3.0,7.0,80,0.00,OVC,OVC,0.00,WeatherDisplay:10.31,2013-08-11 13:20:00,
2013-08-11 09:30:00,75.8,69.2,30.05,SW,222,3.0,7.0,80,0.00,OVC,OVC,0.00,WeatherDisplay:10.31,2013-08-11 13:30:00,
2013-08-11 09:40:00,76.0,69.0,30.04,SW,225,1.0,3.0,79,0.00,OVC,OVC,0.00,WeatherDisplay:10.31,2013-08-11 13:40:00,
2013-08-11 09:55:00,76.5,68.4,30.04,SW,225,2.0,3.0,76,0.00,OVC,OVC,0.00,WeatherDisplay:10.31,2013-08-11 13:55:00,
2013-08-11 10:00:00,76.7,68.2,30.04,SW,225,0.0,3.0,75,0.00,BKN,BKN,0.00,WeatherDisplay:10.31,2013-08-11 14:00:00,
2013-08-11 10:05:00,76.8,68.3,30.04,SW,225,0.0,2.0,75,0.00,SCT,SCT,0.00,WeatherDisplay:10.31,2013-08-11 14:05:00,
2013-08-11 10:10:00,77.2,67.9,30.04,SW,225,1.0,3.0,73,0.00,BKN,BKN,0.00,WeatherDisplay:10.31,2013-08-11 14:10:00,
2013-08-11 10:30:00,78.8,66.9,30.04,SW,218,1.0,5.0,67,0.00,BKN,BKN,0.00,WeatherDisplay:10.31,2013-08-11 14:30:00,
2013-08-11 10:40:00,79.6,67.2,30.05,SSW,202,6.0,6.0,66,0.00,BKN,BKN,0.00,WeatherDisplay:10.31,2013-08-11 14:40:00,
2013-08-11 10:50:00,79.8,66.1,30.05,SW,218,6.0,10.0,63,0.00,SCT,SCT,0.00,WeatherDisplay:10.31,2013-08-11 14:50:00,
2013-08-11 11:00:00,80.3,66.6,30.05,SSW,212,6.0,8.0,63,0.00,BKN,BKN,0.00,WeatherDisplay:10.31,2013-08-11 15:00:00,
2013-08-11 11:05:00,80.3,64.7,30.04,SW,221,2.0,5.0,59,0.00,BKN,BKN,0.00,WeatherDisplay:10.31,2013-08-11 15:05:00,
2013-08-11 11:15:00,80.5,63.4,30.04,SW,217,3.0,7.0,56,0.00,BKN,BKN,0.00,WeatherDisplay:10.31,2013-08-11 15:15:00,
2013-08-11 11:20:00,80.7,63.5,30.04,SSW,199,6.0,9.0,56,0.00,SCT,SCT,0.00,WeatherDisplay:10.31,2013-08-11 15:20:00,
2013-08-11 11:30:00,81.1,64.4,30.04,SSW,199,2.0,5.0,57,0.00,BKN,BKN,0.00,WeatherDisplay:10.31,2013-08-11 15:30:00,
2013-08-11 11:40:00,82.1,64.9,30.04,South,184,3.0,5.0,56,0.00,BKN,BKN,0.00,WeatherDisplay:10.31,2013-08-11 15:40:00,
2013-08-11 11:50:00,82.2,64.4,30.04,SSW,194,1.0,6.0,55,0.00,OVC,OVC,0.00,WeatherDisplay:10.31,2013-08-11 15:50:00,
2013-08-11 12:00:00,82.0,64.2,30.04,SW,217,1.0,5.0,55,0.00,OVC,OVC,0.00,WeatherDisplay:10.31,2013-08-11 16:00:00,
2013-08-11 12:10:00,81.8,63.0,30.03,SE,146,3.0,7.0,53,0.00,OVC,OVC,0.00,WeatherDisplay:10.31,2013-08-11 16:10:00,
2013-08-11 12:20:00,81.4,63.7,30.03,SSW,198,6.0,12.0,55,0.00,BKN,BKN,0.00,WeatherDisplay:10.31,2013-08-11 16:20:00,
2013-08-11 12:30:00,81.3,64.1,30.03,South,182,3.0,6.0,56,0.00,BKN,BKN,0.00,WeatherDisplay:10.31,2013-08-11 16:30:00,
2013-08-11 12:40:00,81.8,63.0,30.02,South,174,2.0,3.0,53,0.00,SCT,SCT,0.00,WeatherDisplay:10.31,2013-08-11 16:40:00,
2013-08-11 12:50:00,82.6,63.7,30.02,South,178,5.0,10.0,53,0.00,BKN,BKN,0.00,WeatherDisplay:10.31,2013-08-11 16:50:00,
2013-08-11 13:00:00,82.6,63.2,30.02,SSW,200,6.0,12.0,52,0.00,OVC,OVC,0.00,WeatherDisplay:10.31,2013-08-11 17:00:00,
2013-08-11 13:05:00,82.4,63.0,30.02,SSW,196,7.0,12.0,52,0.00,OVC,OVC,0.00,WeatherDisplay:10.31,2013-08-11 17:05:00,
2013-08-11 13:10:00,82.0,62.6,30.02,SSW,207,8.0,12.0,52,0.00,OVC,OVC,0.00,WeatherDisplay:10.31,2013-08-11 17:10:00,
2013-08-11 13:20:00,81.6,63.9,30.02,SSW,192,9.0,12.0,55,0.00,BKN,BKN,0.00,WeatherDisplay:10.31,2013-08-11 17:20:00,
2013-08-11 13:35:00,82.2,64.4,30.02,SSW,200,5.0,6.0,55,0.00,BKN,BKN,0.00,WeatherDisplay:10.31,2013-08-11 17:35:00,
2013-08-11 13:40:00,82.6,64.3,30.02,SSW,197,6.0,12.0,54,0.00,OVC,OVC,0.00,WeatherDisplay:10.31,2013-08-11 17:40:00,
2013-08-11 13:50:00,84.0,65.1,30.01,SSW,199,3.0,10.0,53,0.00,BKN,BKN,0.00,WeatherDisplay:10.31,2013-08-11 17:50:00,
2013-08-11 14:05:00,83.8,64.8,30.01,SSW,203,5.0,9.0,53,0.00,FEW,FEW,0.00,WeatherDisplay:10.31,2013-08-11 18:05:00,
2013-08-11 14:10:00,83.8,64.8,30.01,SSW,213,2.0,9.0,53,0.00,BKN,BKN,0.00,WeatherDisplay:10.31,2013-08-11 18:10:00,
2013-08-11 14:20:00,84.3,65.8,30.01,SSW,196,3.0,12.0,54,0.00,SCT,SCT,0.00,WeatherDisplay:10.31,2013-08-11 18:20:00,
2013-08-11 14:30:00,85.3,63.9,30.01,SSW,198,7.0,12.0,49,0.00,FEW,FEW,0.00,WeatherDisplay:10.31,2013-08-11 18:30:00,
2013-08-11 14:40:00,84.8,62.9,30.00,South,180,7.0,14.0,48,0.00,SCT,SCT,0.00,WeatherDisplay:10.31,2013-08-11 18:40:00,
2013-08-11 14:55:00,84.9,63.0,29.99,SE,141,3.0,10.0,48,0.00,SCT,SCT,0.00,WeatherDisplay:10.31,2013-08-11 18:55:00,
2013-08-11 15:00:00,85.3,62.8,29.99,SSE,160,7.0,12.0,47,0.00,CLR,CLR,0.00,WeatherDisplay:10.31,2013-08-11 19:00:00,
2013-08-11 15:10:00,85.7,63.1,29.99,SE,138,2.0,7.0,47,0.00,BKN,BKN,0.00,WeatherDisplay:10.31,2013-08-11 19:10:00,
2013-08-11 15:20:00,84.9,63.6,29.99,SE,137,2.0,9.0,49,0.00,BKN,BKN,0.00,WeatherDisplay:10.31,2013-08-11 19:20:00,
2013-08-11 15:30:00,85.7,64.9,29.98,SSW,195,6.0,12.0,50,0.00,CLR,CLR,0.00,WeatherDisplay:10.31,2013-08-11 19:30:00,
2013-08-11 15:40:00,85.9,64.5,29.98,South,182,5.0,9.0,49,0.00,FEW,FEW,0.00,WeatherDisplay:10.31,2013-08-11 19:40:00,
2013-08-11 15:50:00,85.3,60.9,29.98,SSW,202,6.0,13.0,44,0.00,BKN,BKN,0.00,WeatherDisplay:10.31,2013-08-11 19:50:00,
2013-08-11 16:00:00,85.9,59.4,29.98,South,182,2.0,6.0,41,0.00,SCT,SCT,0.00,WeatherDisplay:10.31,2013-08-11 20:00:00,
2013-08-11 16:05:00,86.1,61.0,29.98,SSE,160,2.0,9.0,43,0.00,BKN,BKN,0.00,WeatherDisplay:10.31,2013-08-11 20:05:00,
2013-08-11 16:10:00,86.1,61.6,29.98,South,172,5.0,9.0,44,0.00,FEW,FEW,0.00,WeatherDisplay:10.31,2013-08-11 20:10:00,
2013-08-11 16:25:00,86.5,62.0,29.97,SSW,201,3.0,12.0,44,0.00,CLR,CLR,0.00,WeatherDisplay:10.31,2013-08-11 20:25:00,
2013-08-11 16:30:00,86.7,62.8,29.97,SSW,194,3.0,6.0,45,0.00,CLR,CLR,0.00,WeatherDisplay:10.31,2013-08-11 20:30:00,
2013-08-11 16:40:00,87.0,63.7,29.97,SE,130,2.0,7.0,46,0.00,CLR,CLR,0.00,WeatherDisplay:10.31,2013-08-11 20:40:00,
2013-08-11 16:50:00,87.2,63.9,29.97,ESE,118,2.0,7.0,46,0.00,BKN,BKN,0.00,WeatherDisplay:10.31,2013-08-11 20:50:00,
2013-08-11 17:05:00,85.3,64.0,29.96,ESE,118,2.0,6.0,49,0.00,CLR,CLR,0.00,WeatherDisplay:10.31,2013-08-11 21:05:00,
2013-08-11 17:10:00,85.1,64.4,29.96,ESE,115,1.0,7.0,50,0.00,CLR,CLR,0.00,WeatherDisplay:10.31,2013-08-11 21:10:00,
2013-08-11 17:30:00,86.1,64.1,29.96,SE,125,3.0,10.0,48,0.00,BKN,BKN,0.00,WeatherDisplay:10.31,2013-08-11 21:30:00,
2013-08-11 17:40:00,85.3,64.0,29.97,SE,137,3.0,7.0,49,0.00,BKN,BKN,0.00,WeatherDisplay:10.31,2013-08-11 21:40:00,
2013-08-11 17:50:00,84.7,62.8,29.97,SSE,152,3.0,5.0,48,0.00,BKN,BKN,0.00,WeatherDisplay:10.31,2013-08-11 21:50:00,
2013-08-11 18:00:00,84.3,62.5,29.96,SE,137,1.0,6.0,48,0.00,OVC,OVC,0.00,WeatherDisplay:10.31,2013-08-11 22:00:00,
2013-08-11 18:10:00,84.0,63.9,29.96,South,178,5.0,9.0,51,0.00,BKN,BKN,0.00,WeatherDisplay:10.31,2013-08-11 22:10:00,
2013-08-11 18:20:00,84.0,63.9,29.95,South,182,5.0,9.0,51,0.00,CLR,CLR,0.00,WeatherDisplay:10.31,2013-08-11 22:20:00,
2013-08-11 18:30:00,83.6,63.6,29.95,SSW,194,3.0,10.0,51,0.00,FEW,FEW,0.00,WeatherDisplay:10.31,2013-08-11 22:30:00,
2013-08-11 18:40:00,83.0,64.1,29.95,South,191,5.0,12.0,53,0.00,CLR,CLR,0.00,WeatherDisplay:10.31,2013-08-11 22:40:00,
2013-08-11 18:55:00,82.4,65.1,29.95,SSW,201,2.0,10.0,56,0.00,FEW,FEW,0.00,WeatherDisplay:10.31,2013-08-11 22:55:00,
2013-08-11 19:00:00,82.2,65.4,29.94,South,186,7.0,10.0,57,0.00,BKN,BKN,0.00,WeatherDisplay:10.31,2013-08-11 23:00:00,
2013-08-11 19:05:00,81.6,65.4,29.95,South,191,6.0,12.0,58,0.00,OVC,OVC,0.00,WeatherDisplay:10.31,2013-08-11 23:05:00,
2013-08-11 19:10:00,81.3,65.6,29.95,SSW,203,5.0,9.0,59,0.00,SCT,SCT,0.00,WeatherDisplay:10.31,2013-08-11 23:10:00,
2013-08-11 19:20:00,80.9,65.7,29.95,South,185,5.0,10.0,60,0.00,SCT,SCT,0.00,WeatherDisplay:10.31,2013-08-11 23:20:00,
2013-08-11 19:25:00,80.7,66.0,29.95,South,187,6.0,9.0,61,0.00,BKN,BKN,0.00,WeatherDisplay:10.31,2013-08-11 23:25:00,
2013-08-11 19:40:00,80.3,66.6,29.96,South,188,6.0,10.0,63,0.00,OVC,OVC,0.00,WeatherDisplay:10.31,2013-08-11 23:40:00,
2013-08-11 20:00:00,79.6,67.2,29.96,South,180,3.0,6.0,66,0.00,OVC,OVC,0.00,WeatherDisplay:10.31,2013-08-12 00:00:00,
2013-08-11 20:10:00,79.2,67.3,29.96,South,180,5.0,7.0,67,0.00,OVC,OVC,0.00,WeatherDisplay:10.31,2013-08-12 00:10:00,
2013-08-11 20:20:00,79.2,67.7,29.96,South,180,3.0,5.0,68,0.00,OVC,OVC,0.00,WeatherDisplay:10.31,2013-08-12 00:20:00,
2013-08-11 20:30:00,78.8,67.8,29.97,South,172,2.0,3.0,69,0.00,OVC,OVC,0.00,WeatherDisplay:10.31,2013-08-12 00:30:00,
2013-08-11 20:40:00,78.6,68.4,29.97,South,180,3.0,7.0,71,0.00,OVC,OVC,0.00,WeatherDisplay:10.31,2013-08-12 00:40:00,
2013-08-11 20:50:00,78.3,68.5,29.97,South,180,3.0,10.0,72,0.00,OVC,OVC,0.00,WeatherDisplay:10.31,2013-08-12 00:50:00,
2013-08-11 21:05:00,77.9,68.5,29.97,South,180,1.0,3.0,73,0.00,OVC,OVC,0.00,WeatherDisplay:10.31,2013-08-12 01:05:00,
2013-08-11 21:10:00,77.9,68.5,29.97,South,180,5.0,5.0,73,0.00,OVC,OVC,0.00,WeatherDisplay:10.31,2013-08-12 01:10:00,
2013-08-11 21:20:00,77.6,67.0,29.98,South,180,3.0,5.0,70,0.00,OVC,OVC,0.00,WeatherDisplay:10.31,2013-08-12 01:20:00,
2013-08-11 21:25:00,77.5,66.5,29.98,South,172,6.0,8.0,69,0.00,OVC,OVC,0.00,WeatherDisplay:10.31,2013-08-12 01:25:00,
2013-08-11 21:30:00,77.4,66.0,29.98,SSE,158,3.0,5.0,68,0.00,OVC,OVC,0.00,WeatherDisplay:10.31,2013-08-12 01:30:00,
2013-08-11 21:40:00,77.3,65.5,29.98,SSE,164,2.0,6.0,67,0.00,OVC,OVC,0.00,WeatherDisplay:10.31,2013-08-12 01:40:00,
2013-08-11 21:50:00,77.0,65.6,29.98,South,177,2.0,6.0,68,0.00,OVC,OVC,0.00,WeatherDisplay:10.31,2013-08-12 01:50:00,
2013-08-11 22:00:00,76.8,65.4,29.98,South,180,2.0,3.0,68,0.00,OVC,OVC,0.00,WeatherDisplay:10.31,2013-08-12 02:00:00,
2013-08-11 22:05:00,76.7,65.8,29.96,South,180,1.0,3.0,69,0.00,OVC,OVC,0.00,WeatherDisplay:10.31,2013-08-12 02:05:00,
2013-08-11 22:10:00,76.5,65.6,29.96,South,180,2.0,3.0,69,0.00,OVC,OVC,0.00,WeatherDisplay:10.31,2013-08-12 02:10:00,
2013-08-11 22:20:00,76.4,65.9,29.96,South,180,2.0,3.0,70,0.00,OVC,OVC,0.00,WeatherDisplay:10.31,2013-08-12 02:20:00,
2013-08-11 22:30:00,76.3,65.8,29.96,South,180,0.0,3.0,70,0.00,OVC,OVC,0.00,WeatherDisplay:10.31,2013-08-12 02:30:00,
2013-08-11 22:40:00,76.1,65.6,29.96,South,180,2.0,5.0,70,0.00,OVC,OVC,0.00,WeatherDisplay:10.31,2013-08-12 02:40:00,
2013-08-11 22:50:00,76.0,65.9,29.96,South,180,2.0,3.0,71,0.00,OVC,OVC,0.00,WeatherDisplay:10.31,2013-08-12 02:50:00,
2013-08-11 23:00:00,75.8,65.7,29.97,South,180,0.0,1.0,71,0.00,OVC,OVC,0.00,WeatherDisplay:10.31,2013-08-12 03:00:00,
2013-08-11 23:05:00,75.8,65.7,29.96,South,180,2.0,3.0,71,0.00,OVC,OVC,0.00,WeatherDisplay:10.31,2013-08-12 03:05:00,
2013-08-11 23:10:00,75.8,65.7,29.96,South,180,0.0,2.0,71,0.00,OVC,OVC,0.00,WeatherDisplay:10.31,2013-08-12 03:10:00,
2013-08-11 23:20:00,75.6,65.9,29.96,South,180,2.0,3.0,72,0.00,OVC,OVC,0.00,WeatherDisplay:10.31,2013-08-12 03:20:00,
2013-08-11 23:35:00,75.4,66.1,29.96,SSE,158,0.0,3.0,73,0.00,OVC,OVC,0.00,WeatherDisplay:10.31,2013-08-12 03:35:00,
2013-08-11 23:45:00,75.3,66.4,29.96,SSE,158,0.0,3.0,74,0.00,OVC,OVC,0.00,WeatherDisplay:10.31,2013-08-12 03:45:00,
2013-08-11 23:50:00,75.3,66.4,29.96,SSE,158,1.0,3.0,74,0.00,OVC,OVC,0.00,WeatherDisplay:10.31,2013-08-12 03:50:00,